Simultaneous Nadir Overpasses (SNOs) Predictions

Prediction of SNOs between GOES-14 and AQUA Satellite Orbit:

Table of predicted SNOs for the next 14.0 days since TLE Epoch: 9/2/2023
Index Date Time (GOES-14) GOES-14 Lat,Lon AQUA Lat,Lon Distance(km) Time Diff (sec)
1 09/02/2023 21:00:07 -0.41,-108.53 0.03,-106.41 240.30 80
2 09/03/2023 09:18:08 0.40,-108.62 1.01,-111.42 319.21 80
3 09/05/2023 09:06:20 0.40,-108.62 0.27,-107.89 82.34 80
4 09/07/2023 08:51:52 0.40,-108.62 -0.50,-104.36 483.77 80
5 09/07/2023 21:10:00 -0.39,-108.52 -0.60,-109.40 99.99 80
6 09/09/2023 20:58:12 -0.38,-108.52 0.21,-105.88 301.81 80
7 09/10/2023 09:16:12 0.37,-108.62 0.86,-110.88 257.28 80
8 09/12/2023 09:04:23 0.36,-108.62 0.07,-107.35 144.95 80
9 09/12/2023 21:22:30 -0.35,-108.52 -1.20,-112.38 439.09 80
10 09/14/2023 21:08:00 -0.35,-108.53 -0.43,-108.84 36.08 80
